Home   Weather   Chișinău   Past weeks

Flag for Moldova Past Weather in Chișinău, Moldova — Yesterday and Last 2 Weeks

39 °F

Passing clouds.

Feels Like: 35 °F
Forecast: 33 / 54 °F
Wind: 6 mph from South

Location: Chisinau International Airport

Current Time: Oct 28, 2016 at 9:06:16 PM

Latest Report: Oct 28, 2016 at 8:30 PM

Visibility: N/A

Pressure: 30.45 "Hg

Humidity: 70%

Dew Point: 30 °F

Location of ChișinăuLocation

Past Weather in Chișinău — Graph


Chișinău Temperature Yesterday

Maximum temperature yesterday: 45 °F (at 2:00 PM)
Minimum temperature yesterday: 36 °F (at 1:30 AM)
Average temperature yesterday: 40 °F

High & Low Weather Summary for the Past Weeks

High54 °F (Oct 14, 2:30 PM)100% (Oct 15, 4:30 AM)30.66 "Hg (Oct 15, 4:30 AM)
Low27 °F (Oct 18, 6:30 AM)40% (Oct 18, 3:00 PM)30.04 "Hg (Oct 13, 8:00 PM)
Average42 °F81%30.37 "Hg
* Reported Oct 13 8:00 PM — Oct 28 8:00 PM, Chișinău, Weather by CustomWeather, © 2016

Note: Actual official high and low records may vary slightly from our data, if they occured in-between our weather recording intervals... More about our weather records


Chișinău Weather History for the Previous 24 Hours

Scroll right to see more
Time TempWeatherWind HumidityBarometerVisibility
8:00 PM
Fri, Oct 28
41 °FPassing clouds.5 mph66%30.48 "HgN/A
7:30 PM41 °FPassing clouds.3 mph70%30.48 "Hg4 mi
7:00 PM43 °FPassing clouds.3 mph66%30.48 "Hg3 mi
6:30 PM43 °FPassing clouds.3 mph66%30.48 "Hg4 mi
6:00 PM45 °FPassing clouds.2 mph61%30.48 "Hg4 mi
5:30 PM45 °FPartly sunny.1 mph61%30.48 "HgN/A
5:00 PM45 °FScattered clouds.2 mph57%30.48 "HgN/A
4:30 PM46 °FScattered clouds.2 mph53%30.48 "HgN/A
4:00 PM46 °FScattered clouds.3 mph53%30.51 "HgN/A
3:30 PM46 °FScattered clouds.3 mph53%30.51 "HgN/A
3:00 PM46 °FScattered clouds.6 mph53%30.51 "HgN/A
2:30 PM48 °FPassing clouds.2 mph54%30.54 "HgN/A
2:00 PM46 °FPassing clouds.6 mph57%30.54 "HgN/A
1:30 PM46 °FPassing clouds.5 mph57%30.54 "HgN/A
1:00 PM45 °FPassing clouds.6 mph66%30.57 "HgN/A
12:30 PM45 °FPassing clouds.3 mph66%30.57 "HgN/A
12:00 PM43 °FPassing clouds.5 mph71%30.57 "Hg6 mi
11:30 AM41 °FClear.5 mph76%30.57 "Hg6 mi
11:00 AM39 °FFog.6 mph81%30.57 "Hg3 mi
10:30 AM39 °FFog.6 mph87%30.57 "Hg3 mi
10:00 AM37 °FFog.6 mph87%30.60 "Hg2 mi
9:30 AM37 °FFog.5 mph87%30.60 "Hg2 mi
9:00 AM36 °FFog.5 mph93%30.57 "Hg1 mi
8:30 AM34 °FFog.5 mph93%30.57 "Hg2 mi
8:00 AM34 °FFog.5 mph93%30.57 "Hg1 mi
7:30 AM34 °FFog.7 mph93%30.57 "Hg1 mi
7:00 AM32 °FIce fog.5 mph93%30.57 "Hg1 mi
6:30 AM34 °FFog.2 mph87%30.54 "Hg1 mi
6:00 AM34 °FFog.8 mph93%30.54 "Hg1 mi
5:30 AM36 °FFog.9 mph93%30.54 "Hg2 mi
5:00 AM37 °FFog.7 mph87%30.54 "Hg2 mi
4:30 AM37 °FFog.8 mph93%30.54 "Hg2 mi
4:00 AM37 °FFog.8 mph93%30.54 "Hg2 mi
3:30 AM37 °FFog.6 mph93%30.54 "Hg2 mi
3:00 AM39 °FFog.7 mph87%30.54 "Hg2 mi
2:30 AM39 °FFog.8 mph87%30.54 "Hg2 mi
2:00 AM39 °FFog.8 mph87%30.54 "Hg2 mi
1:30 AM37 °FFog.6 mph93%30.54 "Hg2 mi
1:00 AM37 °FFog.12 mph93%30.51 "Hg2 mi
12:30 AM39 °FFog.10 mph87%30.51 "Hg2 mi
12:00 AM39 °FFog.10 mph87%30.51 "Hg2 mi
11:30 PM
Thu, Oct 27
39 °FFog.9 mph87%30.51 "Hg2 mi
11:00 PM39 °FFog.9 mph87%30.51 "Hg2 mi
10:30 PM39 °FFog.10 mph87%30.51 "Hg2 mi
10:00 PM39 °FFog.10 mph87%30.48 "Hg2 mi
9:30 PM39 °FFog.9 mph87%30.48 "Hg2 mi
9:00 PM39 °FFog.8 mph87%30.48 "Hg2 mi
Weather by CustomWeather, © 2016

See weather overviewHow to use our weather pages